Regional Weather Roundup
Issued by NWS

Home | Current Version | Previous Version | Graphics & Text | Print | Product List | Glossary On
Versions: 1 2 3 4 5 6 7 8 9 10 11 12 13 14 15 16 17 18 19 20 21 22 23 24 25 26 27 28 29 30 31 32 33 34 35 36 37 38 39 40 41 42 43 44 45 46 47 48 49 50
000
ASUS45 KBOI 200410
RWRID
WEATHER ROUNDUP FOR IDAHO
NATIONAL WEATHER SERVICE BOISE ID
900 PM MST FRI DEC 19 2014

NOTE: "FAIR" INDICATES FEW OR NO CLOUDS BELOW 12000 FEET
WITH NO SIGNIFICANT WEATHER AND/OR OBSTRUCTIONS TO VISIBILITY

IDZ012-014-200500-
SOUTHWEST IDAHO


CITY           SKY/WX    TMP DP  RH WIND       PRES   REMARKS
BOISE          CLOUDY    39  36  89 E6        30.08S WCI  35
CALDWELL       CLOUDY    37  30  75 NE6       30.09S WCI  33
MOUNTAIN HOME  CLOUDY    37  35  92 SW3       30.10R
$$

IDZ016-017-200500-
SOUTHCENTRAL IDAHO


CITY           SKY/WX    TMP DP  RH WIND       PRES   REMARKS
BURLEY         CLOUDY    37  33  85 S10       30.08S WCI  30
JEROME         CLOUDY    37  33  85 S5        30.09S WCI  33
TWIN FALLS     CLOUDY    40  34  79 S14       30.08R WCI  32
$$

IDZ019>023-200500-
SOUTHEAST IDAHO


CITY           SKY/WX    TMP DP  RH WIND       PRES   REMARKS
IDAHO FALLS    LGT SNOW  34  32  92 SW13      30.08R FOG     WCI  25
POCATELLO      CLOUDY    36  33  89 SW13      30.10R WCI  27
REXBURG        CLOUDY    32  32 100 SW8       30.07R WCI  25
$$

IDZ006-010-011-018-031-032-200500-
CENTRAL IDAHO MOUNTAINS


CITY           SKY/WX    TMP DP  RH WIND       PRES   REMARKS
MCCALL         CLOUDY    32  30  92 MISG      30.01S
HAILEY         CLOUDY    30  30 100 CALM      30.08S FOG
STANLEY          N/A     29  25  85 CALM      30.03R
SALMON         CLOUDY    30  27  86 SE3       30.01R
CHALLIS        MOCLDY    27  26  96 CALM      30.01R
$$

IDZ002-004-006-007-026-200500-
NORTHERN IDAHO


CITY           SKY/WX    TMP DP  RH WIND       PRES   REMARKS
LEWISTON       FOG       38  38 100 CALM      30.06R VSB<1/4
LOWELL           N/A     39  37  92 NW3       30.10S
COEUR D`ALENE  MOCLDY    39  36  87 SW6       29.98S WCI  35
MULLAN PASS    SNOW      28  25  88 VRB3      29.90R VSB 1/2
$$


USA.gov is the U.S. government's official web portal to all federal, state and local government web resources and services.